Time,TemperatureF,DewpointF,PressureIn,WindDirection,WindDirectionDegrees,WindSpeedMPH,WindSpeedGustMPH,Humidity,HourlyPrecipIn,Conditions,Clouds,dailyrainin,SolarRadiationWatts/m^2,SoftwareType,DateUTC
2013-12-07 00:00:00,42.5,41.2,30.32,West,270,10.0,10.0,95,0.00,,,0.00,0,Wunderground v.1.15,2013-12-07 00:00:00,
2013-12-07 00:30:00,43.0,41.7,30.31,West,259,10.0,10.0,95,0.00,,,0.00,0,Wunderground v.1.15,2013-12-07 00:30:00,
2013-12-07 01:00:00,43.3,41.7,30.30,WSW,257,10.0,12.0,94,0.00,,,0.00,0,Wunderground v.1.15,2013-12-07 01:00:00,
2013-12-07 01:30:00,42.9,41.0,30.30,WSW,245,10.0,11.0,93,0.00,,,0.00,0,Wunderground v.1.15,2013-12-07 01:30:00,
2013-12-07 02:01:00,43.0,41.1,30.30,WSW,252,10.0,10.0,93,0.00,,,0.00,0,Wunderground v.1.15,2013-12-07 02:01:00,
2013-12-07 02:30:00,42.7,40.8,30.29,WSW,244,10.0,10.0,93,0.00,,,0.00,0,Wunderground v.1.15,2013-12-07 02:30:00,
2013-12-07 03:00:00,42.8,40.9,30.29,WSW,250,9.0,9.0,93,0.00,,,0.00,0,Wunderground v.1.15,2013-12-07 03:00:00,
2013-12-07 03:30:00,43.0,40.8,30.28,WSW,248,8.0,8.0,92,0.00,,,0.00,0,Wunderground v.1.15,2013-12-07 03:30:00,
2013-12-07 04:00:00,42.7,41.1,30.27,West,266,10.0,13.0,94,0.00,,,0.00,0,Wunderground v.1.15,2013-12-07 04:00:00,
2013-12-07 04:30:00,43.1,41.2,30.27,WSW,252,10.0,10.0,93,0.00,,,0.00,0,Wunderground v.1.15,2013-12-07 04:30:00,
2013-12-07 05:00:00,42.8,41.2,30.27,WSW,252,10.0,11.0,94,0.00,,,0.00,0,Wunderground v.1.15,2013-12-07 05:00:00,
2013-12-07 05:30:00,43.0,41.4,30.27,WSW,255,11.0,12.0,94,0.00,,,0.00,0,Wunderground v.1.15,2013-12-07 05:30:00,
2013-12-07 06:00:00,43.1,41.5,30.27,West,264,12.0,12.0,94,0.00,,,0.00,0,Wunderground v.1.15,2013-12-07 06:00:00,
2013-12-07 06:30:00,43.0,41.7,30.26,WSW,257,12.0,12.0,95,0.00,,,0.00,0,Wunderground v.1.15,2013-12-07 06:30:00,
2013-12-07 07:00:00,42.9,41.6,30.25,WSW,241,9.0,9.0,95,0.00,,,0.00,0,Wunderground v.1.15,2013-12-07 07:00:00,
2013-12-07 07:30:00,42.4,41.1,30.25,WSW,249,9.0,9.0,95,0.00,,,0.00,0,Wunderground v.1.15,2013-12-07 07:30:00,
2013-12-07 08:01:00,41.9,40.6,30.25,SW,227,8.0,11.0,95,0.00,,,0.00,0,Wunderground v.1.15,2013-12-07 08:01:00,
2013-12-07 08:30:00,41.4,40.1,30.24,SW,234,9.0,9.0,95,0.00,,,0.00,7,Wunderground v.1.15,2013-12-07 08:30:00,
2013-12-07 09:00:00,41.8,40.7,30.25,WSW,241,10.0,10.0,96,0.00,,,0.00,33,Wunderground v.1.15,2013-12-07 09:00:00,
2013-12-07 09:30:00,42.7,41.4,30.24,WSW,252,12.0,16.0,95,0.00,,,0.00,76,Wunderground v.1.15,2013-12-07 09:30:00,
2013-12-07 10:00:00,43.0,41.4,30.24,West,263,11.0,12.0,94,0.00,,,0.01,53,Wunderground v.1.15,2013-12-07 10:00:00,
2013-12-07 10:30:00,43.5,41.9,30.24,WSW,243,12.0,14.0,94,0.00,,,0.01,74,Wunderground v.1.15,2013-12-07 10:30:00,
2013-12-07 11:00:00,44.3,42.4,30.23,WSW,254,13.0,13.0,93,0.00,,,0.01,148,Wunderground v.1.15,2013-12-07 11:00:00,
2013-12-07 11:30:00,44.5,42.3,30.22,WSW,256,13.0,13.0,92,0.00,,,0.01,88,Wunderground v.1.15,2013-12-07 11:30:00,
2013-12-07 12:00:00,44.7,43.1,30.21,WSW,256,12.0,15.0,94,0.00,,,0.01,125,Wunderground v.1.15,2013-12-07 12:00:00,
2013-12-07 12:30:00,45.0,43.1,30.21,WSW,242,14.0,14.0,93,0.00,,,0.01,88,Wunderground v.1.15,2013-12-07 12:30:00,
2013-12-07 13:00:00,45.0,43.7,30.20,WSW,246,12.0,12.0,95,0.00,,,0.01,54,Wunderground v.1.15,2013-12-07 13:00:00,
2013-12-07 13:30:00,44.9,43.8,30.19,WSW,244,13.0,15.0,96,0.00,,,0.01,81,Wunderground v.1.15,2013-12-07 13:30:00,
2013-12-07 14:00:00,45.3,44.0,30.18,West,261,11.0,12.0,95,0.00,,,0.01,32,Wunderground v.1.15,2013-12-07 14:00:00,
2013-12-07 14:30:00,45.8,43.9,30.17,WSW,248,10.0,11.0,93,0.00,,,0.01,60,Wunderground v.1.15,2013-12-07 14:30:00,
2013-12-07 15:00:00,46.3,43.8,30.16,WSW,251,12.0,15.0,91,0.00,,,0.01,26,Wunderground v.1.15,2013-12-07 15:00:00,
2013-12-07 15:30:00,46.5,44.0,30.17,West,265,12.0,12.0,91,0.00,,,0.01,19,Wunderground v.1.15,2013-12-07 15:30:00,
2013-12-07 16:00:00,46.5,44.0,30.17,West,269,11.0,14.0,91,0.00,,,0.01,11,Wunderground v.1.15,2013-12-07 16:00:00,
2013-12-07 16:30:00,46.1,43.6,30.16,WSW,246,10.0,10.0,91,0.00,,,0.01,0,Wunderground v.1.15,2013-12-07 16:30:00,
2013-12-07 17:00:00,45.7,43.2,30.16,WSW,248,12.0,17.0,91,0.00,,,0.01,0,Wunderground v.1.15,2013-12-07 17:00:00,
2013-12-07 17:30:00,46.0,43.2,30.16,WSW,257,13.0,13.0,90,0.00,,,0.01,0,Wunderground v.1.15,2013-12-07 17:30:00,
2013-12-07 18:00:00,45.4,43.5,30.15,WSW,250,10.0,10.0,93,0.00,,,0.01,0,Wunderground v.1.15,2013-12-07 18:00:00,
2013-12-07 18:30:00,45.3,43.4,30.15,West,262,14.0,14.0,93,0.00,,,0.01,0,Wunderground v.1.15,2013-12-07 18:30:00,
2013-12-07 19:00:00,44.9,43.0,30.14,WSW,252,14.0,16.0,93,0.00,,,0.01,0,Wunderground v.1.15,2013-12-07 19:00:00,
2013-12-07 19:30:00,44.8,42.6,30.15,WSW,238,13.0,13.0,92,0.00,,,0.01,0,Wunderground v.1.15,2013-12-07 19:30:00,
2013-12-07 20:00:00,44.8,42.6,30.15,WSW,258,12.0,14.0,92,0.00,,,0.01,0,Wunderground v.1.15,2013-12-07 20:00:00,
2013-12-07 20:30:00,44.9,42.7,30.14,WSW,254,13.0,13.0,92,0.00,,,0.01,0,Wunderground v.1.15,2013-12-07 20:30:00,
2013-12-07 21:00:00,44.7,42.8,30.15,WSW,246,12.0,13.0,93,0.00,,,0.01,0,Wunderground v.1.15,2013-12-07 21:00:00,
2013-12-07 21:30:00,44.5,42.6,30.15,WSW,247,14.0,14.0,93,0.00,,,0.01,0,Wunderground v.1.15,2013-12-07 21:30:00,
2013-12-07 22:00:00,44.7,42.8,30.13,WSW,249,17.0,17.0,93,0.00,,,0.01,0,Wunderground v.1.15,2013-12-07 22:00:00,
2013-12-07 22:30:00,44.1,42.5,30.13,WSW,240,13.0,16.0,94,0.00,,,0.01,0,Wunderground v.1.15,2013-12-07 22:30:00,
2013-12-07 23:00:00,43.7,42.4,30.11,SW,232,14.0,17.0,95,0.00,,,0.01,0,Wunderground v.1.15,2013-12-07 23:00:00,
2013-12-07 23:30:00,43.5,41.9,30.12,SW,229,11.0,11.0,94,0.00,,,0.01,0,Wunderground v.1.15,2013-12-07 23:30:00,